EHBKEHRD

Guest
Details From EHBK - Maastricht
To EHRD - Rotterdam The Hague
Flight Number -
Tags decoded
Created
Modified
Stats Distance 89 nm / 165 km
Max Altitude 0 ft / 0 m
Waypoints 4
Social Downloads 1
Likes 0
Share VATSIM

Download

Looking for another format? Having issues loading an existing format? Contact us
Advertisement - Login to hide

Notes

Requested: EHBK OSGOS P57 INKET EHRD Unmatched points: P57

Route

EHBK OSGOS INKET EHRD

ID Type Via Altitude Latitude Longitude Leg Dist Tot Dist Heading (true) Name
O EHBK APT - 0 ft / 0 m 50.91131˚ 5.76964˚ - 0 nm - Maastricht
OSGOS FIX - 0 ft / 0 m 51.18333˚ 5.91591˚ 17 nm 17 nm 19° / 19° -
INKET FIX - 0 ft / 0 m 51.81463˚ 4.77196˚ 57 nm 74 nm 312° / 311° -
O EHRD APT - 0 ft / 0 m 51.95747˚ 4.44166˚ 14 nm 89 nm 305° / 305° Rotterdam The Hague

Altitude Profile

Advertisement - Login to hide

EHBK

Details ICAO EHBK (MST)
Name Maastricht
Region Netherlands
Timezone Europe/Amsterdam (UTC+2.0)
Stats Elevation 375 ft / 114 m (AMSL)
Location 50.911305° 5.769639°
Runways 1
Magnetic Variation 1.577° E

METAR

EHBK 270255Z AUTO 04005KT 9999 NSC 18/15 Q1017

Decode

TAF

TAF EHBK 262242Z 2700/2806 09005KT CAVOK TEMPO 2711/2721 22010G20KT 4000 SHRA SCT060CB PROB30 TEMPO 2713/2717 VRB15G35KT 1400 +TSRAGR BKN005 SCT050CB PROB30 2721/2805 4000 BR MIFG

Decode

Departure Runways

ID Width Length Bearing (true) Bearing (mag) Surface Threshold Offset Overrun Length
03 148 ft / 45 m 8,200 ft / 2,499 m 32.55° 30.97° Asphalt 820 ft / 250 m 0 ft / 0 m
21 148 ft / 45 m 8,200 ft / 2,499 m 212.56° 210.98° Asphalt 820 ft / 250 m 0 ft / 0 m

EHRD

Details ICAO EHRD (RTM)
Name Rotterdam The Hague
Region Netherlands
Timezone Europe/Amsterdam (UTC+2.0)
Stats Elevation -15 ft / -5 m (AMSL)
Location 51.957468° 4.441662°
Runways 1
Magnetic Variation 1.111° E

METAR

EHRD 270255Z AUTO 07009KT 050V110 9999 NSC 18/12 Q1018 NOSIG

Decode

TAF

TAF EHRD 262235Z 2700/2806 07010KT CAVOK PROB30 TEMPO 2715/2721 15015G25KT 5000 SHRA TSRA SCT050CB BECMG 2717/2720 11005KT PROB30 2801/2805 4000 BR MIFG

Decode

Destination Runways

ID Width Length Bearing (true) Bearing (mag) Surface Threshold Offset Overrun Length
06 148 ft / 45 m 7,201 ft / 2,195 m 56.93° 55.82° Asphalt 656 ft / 200 m 0 ft / 0 m
24 148 ft / 45 m 7,201 ft / 2,195 m 236.95° 235.84° Asphalt 656 ft / 200 m 0 ft / 0 m

Approach Navaids

Runway Type Ident Frequency Range Bearing (true) Bearing (mag) Slope Elevation
06 Localiser ROS 110.90 MHz 18 nm / 33 km 56.94° 55.83° - -15 ft / -5 m (AMSL)
06 Glidescope ROS 110.90 MHz 15 nm / 28 km 56.94° 55.83° 3.00° -15 ft / -5 m (AMSL)
06 DME ROS 110.90 MHz 18 nm / 33 km - - - -15 ft / -5 m (AMSL)
24 Localiser RSV 110.90 MHz 18 nm / 33 km 236.94° 235.83° - -15 ft / -5 m (AMSL)
24 Glidescope RSV 110.90 MHz 15 nm / 28 km 236.94° 235.83° 3.00° -15 ft / -5 m (AMSL)
24 DME RSV 110.90 MHz 18 nm / 33 km - - - -15 ft / -5 m (AMSL)

Popular Alternatives